Location: Saginaw
(43.4195°N, 83.9508°W)
Time: 03:17:06
(UTC-04:00)

Daily predictions for brighter satellites

Satellite Brightness Start Highest point End
(mag) Time Altitude Azimuth Time Altitude Azimuth Time Altitude Azimuth
Cosmos 1758 Rocket 3.4 00:04:46 66° SSE 00:05:19 80° E 00:09:42 10° N
H-2A R/B 2.9 00:05:36 36° SW 00:06:48 44° W 00:11:08 10° NNW
Cosmos 1953 2.3 00:02:42 10° NNW 00:06:48 74° W 00:07:12 66° SW
Spot 4 3.8 00:08:32 54° S 00:09:36 79° WSW 00:14:27 10° NNW
Meteor 2-5 Rocket 4.4 00:09:05 37° ESE 00:10:20 42° E 00:15:53 10° NNE
ISS -1.2 00:10:16 10° NW 00:12:51 20° N 00:15:23 10° ENE
Lacrosse 5 1.7 00:12:02 51° SSW 00:13:13 71° SE 00:18:17 10° NE
CZ-2C R/B 3.6 00:10:23 10° NNE 00:15:19 31° E 00:15:50 30° ESE
Cosmos 972 Rocket 3.8 00:10:10 10° NNW 00:15:20 85° WSW 00:16:17 59° S
Cosmos 1331 Rocket 3.9 00:11:09 10° NNW 00:16:19 78° WSW 00:17:24 56° S
Cosmos 1110 Rocket 4.2 00:16:03 10° NNW 00:21:14 62° WSW 00:22:19 50° SSW
Cosmos 389 Rocket 3.5 00:19:51 10° NNW 00:22:49 39° W 00:22:49 39° W
Cosmos 1470 2.7 00:19:20 10° N 00:23:19 87° NW 00:23:19 87° NW
USA 267 3.6 00:18:50 10° ENE 00:24:56 40° SE 00:25:21 40° SE
Cosmos 1302 Rocket 4.0 00:21:09 10° NNW 00:26:27 76° ENE 00:27:32 56° SE
Cosmos 1707 3.0 00:27:46 61° NE 00:27:46 61° NE 00:31:11 10° NNE
SeaSat 1 3.6 00:27:30 26° E 00:29:20 34° NE 00:33:46 10° N
Lacrosse 5 rocket 1.4 00:25:19 10° NW 00:29:59 87° SW 00:30:18 77° SE
Cosmos 2219 Rocket 4.5 00:26:35 10° N 00:30:11 17° NE 00:33:47 10° E
Cosmos 1953 Rocket 4.2 00:31:48 43° WSW 00:32:42 51° WNW 00:37:04 10° N
Cosmos 1821 Rocket 4.3 00:28:45 10° NNW 00:34:57 62° W 00:37:10 40° SSW
NOSS 3-1 (C) 4.1 00:27:29 10° NW 00:35:03 70° WSW 00:38:12 41° S
Meteor 1-24 Rocket 4.3 00:37:23 41° ESE 00:38:28 45° E 00:44:10 10° NNE
Meteor 2-15 4.5 00:44:56 51° SSE 00:46:16 65° E 00:52:16 10° NNE
ALOS 2 2.7 00:48:44 60° E 00:48:53 60° ENE 00:53:13 10° N
CZ-2C R/B 3.3 00:48:57 54° SE 00:50:09 71° ENE 00:55:53 10° N
Cosmos-2242 3.3 00:46:05 10° NNW 00:50:16 54° W 00:50:16 54° W
Cosmos 2084 Rocket 3.5 00:51:11 66° NNE 00:51:11 66° NNE 00:54:37 10° NE
Cosmos 1727 Rocket 3.9 00:50:54 53° SSE 00:52:24 75° E 00:58:40 10° N
SL-16 R/B 2.7 00:51:17 10° NW 00:56:38 43° WSW 00:57:26 41° SW
Cosmos 2251 Rocket 4.2 00:54:35 33° WSW 00:56:39 50° WNW 01:01:54 10° N
Cosmos 1605 Rocket 3.9 00:51:48 10° N 00:57:53 75° W 00:59:23 53° SSW
USA 234 4.4 00:54:16 10° E 01:00:18 41° NNE 01:06:19 10° NW
CZ-4B R/B 3.8 01:04:14 15° NE 01:04:14 15° NE 01:05:42 10° NNE
ATLAS 2AS CENTAUR R/B 3.7 01:01:25 10° NNW 01:09:16 50° NE 01:15:09 17° ESE
NOSS 3-1 (A) 4.2 01:02:05 10° NW 01:09:34 58° WSW 01:12:02 43° S
Meteor 2-15 Rocket 4.3 01:08:38 57° S 01:09:58 83° E 01:16:04 10° N
Cosmos 2098 Rocket 3.9 01:07:02 10° NNW 01:11:52 58° W 01:12:52 50° SW
Cosmos 2221 3.2 01:07:55 10° N 01:12:00 43° ENE 01:12:00 43° ENE
Cosmos 2227 Rocket 4.4 01:11:46 12° E 01:12:04 12° E 01:13:55 10° ENE
Cosmos 2173 Rocket 4.2 01:06:43 10° N 01:12:44 57° ENE 01:14:16 45° SE
Cosmos 1153 Rocket 4.4 01:07:51 10° N 01:14:07 82° W 01:15:37 55° S
CZ-4C R/B 4.2 01:16:48 40° NE 01:16:48 40° NE 01:19:47 10° N
Cosmos 1378 4.3 01:16:45 38° WNW 01:16:45 38° WNW 01:19:53 10° N
ATLAS CENTAUR R/B 3.7 01:18:12 10° WNW 01:18:44 12° W 01:18:44 12° W
Cosmos 2322 3.6 01:18:36 10° NNW 01:24:16 76° WSW 01:25:00 65° S
ARGOS Delta rocket 4.4 01:21:09 10° N 01:26:27 62° WNW 01:27:36 50° SW
Cosmos 2237 4.1 01:24:10 10° NNW 01:29:53 88° ENE 01:30:52 63° SSE
Meteor 2-1 Rocket 4.3 01:24:17 10° NNW 01:30:12 80° W 01:31:18 60° SSW
Cosmos 1459 Rocket 4.0 01:25:21 10° N 01:31:45 81° E 01:33:22 54° SSE
Cosmos 1833 4.5 01:30:32 45° WSW 01:32:06 62° WNW 01:37:46 10° NNE
Cosmos 1076 Rocket 4.2 01:33:17 46° E 01:33:17 46° E 01:37:10 10° NNE
Cosmos 2360 Rocket 2.3 01:27:34 10° NNW 01:33:05 55° WSW 01:33:33 53° SW
Cosmos 2219 3.2 01:37:44 58° SE 01:38:15 61° ESE 01:43:47 10° NNE
SAR-Lupe-2 4.4 01:42:55 50° N 01:42:55 50° N 01:45:41 10° N
Cosmos 1242 Rocket 4.2 01:38:57 10° NNE 01:41:43 28° ENE 01:41:43 28° ENE
Meteor 2-17 Rocket 4.3 01:36:53 10° N 01:43:01 88° W 01:44:21 58° S
COSMOS 2428 2.6 01:38:39 10° NNW 01:44:26 86° ENE 01:45:34 60° SSE
Cosmos 2322 Rocket 4.0 01:42:46 10° WNW 01:46:16 17° W 01:46:33 17° WSW
Cosmos 2333 4.1 01:43:04 10° NNW 01:48:50 84° ENE 01:50:00 58° SE
BREEZE-M DEB (TANK) 4.1 01:45:58 10° WNW 01:49:07 49° N 02:00:09 10° ENE
ISS -1.7 01:46:39 10° NW 01:48:13 24° NW 01:48:13 24° NW
Cosmos 1340 Rocket 3.1 01:50:32 63° N 01:50:32 63° N 01:53:54 10° N
CZ-2C R/B 3.7 01:50:28 10° N 01:55:37 39° WNW 01:57:22 31° WSW
Lacrosse 5 3.6 01:52:08 10° W 01:56:36 30° NNW 02:01:04 10° NE
Cosmos 2016 Rocket 3.9 01:51:26 10° N 01:57:51 90° W 01:59:30 53° S
Cosmos 1908 3.6 01:55:38 10° N 01:58:58 61° NNW 01:58:58 61° NNW
Cosmos 1802 Rocket 3.9 01:54:16 10° NNW 02:00:30 73° W 02:01:53 54° SSW
Cosmos 2100 Rocket 4.2 01:55:42 10° NNW 02:01:42 56° W 02:03:00 47° SW
Cosmos 407 Rocket 3.3 02:04:04 68° SSE 02:04:33 74° ESE 02:09:41 10° NNE
H-2A R/B 2.9 02:01:25 10° NNE 02:05:37 56° E 02:05:37 56° E
SeaSat 1 3.3 02:07:17 34° W 02:07:17 34° W 02:11:20 10° NW
USA 267 3.5 02:01:40 10° NE 02:08:08 65° NNW 02:12:39 21° WSW
Cosmos 1184 Rocket 4.4 02:10:43 33° NNW 02:10:43 33° NNW 02:12:54 10° N
Cosmos 2219 Rocket 2.1 02:09:16 10° NNW 02:14:59 88° ENE 02:16:23 54° SSE
Cosmos 2333 Rocket 2.3 02:10:29 10° NNW 02:16:14 75° ENE 02:18:03 44° SE
Cosmos 1356 Rocket 3.4 02:17:04 74° NE 02:17:04 74° NE 02:20:53 10° NNE
Cosmos 2297 Rocket 3.2 02:16:08 31° SE 02:17:08 33° ESE 02:22:07 10° NE
Cosmos 1674 3.3 02:17:39 51° NW 02:17:39 51° NW 02:20:59 10° N
Cosmos 1726 2.6 02:14:03 10° N 02:17:24 56° NE 02:17:24 56° NE
Cosmos 1980 4.0 02:14:07 10° NNW 02:19:46 62° ENE 02:22:16 33° SE
Cosmos 676 Rocket 3.9 02:23:51 62° SSE 02:24:40 76° ESE 02:29:57 10° NNE
Cosmos 1190 Rocket 4.2 02:25:26 52° WSW 02:26:29 64° WNW 02:31:46 10° NNE
Cosmos 2123 Rocket 3.9 02:26:45 50° SSW 02:28:26 77° W 02:34:39 10° N
ERBS 3.4 02:29:05 41° NNW 02:29:05 41° NNW 02:31:57 10° NE
SL-8 R/B 4.1 02:29:48 32° W 02:31:53 62° NNW 02:36:38 10° ENE
Meteor 2-2 Rocket 4.1 02:26:33 10° N 02:32:13 88° E 02:33:43 51° SSE
Cosmos 2228 Rocket 3.1 02:27:56 10° N 02:32:27 77° E 02:32:56 68° SE
CZ-4B R/B 3.6 02:37:48 17° NW 02:37:48 17° NW 02:38:53 10° NW
NOSS 0 Rocket 3.8 02:30:40 10° NNW 02:36:54 81° WSW 02:39:01 44° SSE
Lacrosse 4 Rocket 3.8 02:36:39 13° ESE 02:36:56 13° ESE 02:38:47 10° ENE
Cosmos 2233 Rocket 4.0 02:31:13 10° N 02:37:35 81° E 02:39:56 41° SSE
Cosmos 2237 Rocket 2.2 02:32:10 10° NNW 02:37:49 78° ENE 02:40:03 38° SE
SL-16 R/B 3.5 02:35:34 10° NNW 02:40:52 38° ENE 02:46:07 10° SE
Cosmos 1300 2.7 02:38:15 10° N 02:41:48 74° NNW 02:41:48 74° NNW
USA 234 3.1 02:37:01 13° SE 02:42:58 81° SW 02:49:34 10° NW
Cosmos 1408 Rocket 4.1 02:43:38 43° W 02:43:49 43° WNW 02:47:59 10° N
SL-14 R/B 3.2 02:46:35 86° WSW 02:46:38 87° W 02:50:44 10° N
Meteor 2-12 Rocket 4.4 02:45:24 10° N 02:51:35 80° E 02:54:11 37° SSE
Cosmos 1500 Rocket 3.5 02:51:24 66° SSE 02:51:58 80° E 02:56:26 10° N
NOSS 2-1 (D) 3.1 02:53:08 85° S 02:53:13 87° SE 02:57:31 10° NE
NOSS 2-1 (C) 3.1 02:53:18 85° SSE 02:53:21 86° SE 02:57:39 10° NE
Cosmos 1725 Rocket 4.4 02:48:27 10° NNW 02:54:28 48° W 02:56:11 39° SW
Cosmos 2227 Rocket 2.1 02:53:35 49° SSW 02:55:11 85° ESE 03:00:53 10° NNE
Cosmos 614 Rocket 4.0 02:54:46 52° S 02:56:02 76° ESE 03:01:17 10° NNE
CZ-2D R/B 4.1 02:55:35 10° NE 02:59:24 20° E 03:02:39 12° SE
ATLAS 2AS CENTAUR R/B 3.3 02:52:48 10° NW 03:00:17 46° WSW 03:02:31 37° SSW
Cosmos 2208 Rocket 4.3 02:58:09 10° NNW 03:03:20 63° ENE 03:06:31 23° SE
Cosmos 1140 Rocket 3.5 03:02:19 49° SW 03:03:41 76° WNW 03:08:55 10° NNE
NOSS 3-3 (A) 4.4 03:05:55 29° WSW 03:09:05 56° NW 03:15:44 10° NNE
NOSS 3-3 (C) 4.4 03:06:03 29° WSW 03:09:11 57° NW 03:15:50 10° NNE
Cosmos 2151 2.8 03:09:37 64° SSW 03:10:13 81° W 03:14:28 10° N
Cosmos 1515 Rocket 3.8 03:07:32 10° NNW 03:11:49 50° W 03:12:11 49° WSW
BREEZE-M DEB 3.7 03:12:11 41° SSE 03:12:25 41° SSE 03:15:12 10° E
Cosmos 1464 Rocket 4.1 03:08:16 10° N 03:14:25 70° E 03:18:14 24° SSE
Cosmos 1743 Rocket 4.1 03:14:02 40° WSW 03:14:41 43° WNW 03:18:55 10° N
NOSS 2-1 (E) 3.5 03:15:36 51° W 03:16:19 63° NW 03:20:44 10° NNE
Aureole 2 Rocket 3.3 03:12:30 10° NNW 03:16:12 44° W 03:16:12 44° W
DELTA 2 R/B (1) 3.7 03:15:49 44° SSW 03:16:58 51° SSE 03:22:21 10° E
Cosmos 1241 Rocket 4.4 03:11:14 10° NW 03:17:42 80° WSW 03:22:33 18° SSE
CZ-3B DEB 4.4 03:13:03 28° SSW 03:21:39 69° SE 03:35:40 10° NE
Cosmos 1455 2.5 03:20:07 10° N 03:24:00 66° E 03:25:13 40° SSE
Cosmos 1850 Rocket 3.9 03:25:09 41° SSW 03:26:59 80° WNW 03:32:11 10° NNE
Cosmos 2082 3.9 03:25:59 35° SW 03:28:14 63° WNW 03:33:50 10° NNE
Sich 1 4.1 03:27:23 23° SE 03:29:34 39° E 03:33:37 10° NNE
Cosmos 1626 2.0 03:29:33 61° SW 03:30:02 72° W 03:33:47 10° N
Helios 1A Rocket 3.6 03:26:49 10° N 03:30:46 42° WNW 03:31:41 37° WSW
Cosmos 1633 Rocket 4.3 03:30:16 20° SE 03:32:42 35° E 03:36:40 10° NNE
Cosmos 1741 Rocket 4.1 03:33:00 37° SW 03:35:07 71° WNW 03:40:28 10° NNE
Cosmos 1151 Rocket 3.7 03:31:34 10° NNW 03:35:34 36° W 03:36:06 35° WSW
Cosmos 1356 3.3 03:35:41 64° SSW 03:36:10 85° W 03:39:42 10° N
IRS-P3 4.1 03:32:08 10° NNE 03:37:29 78° WNW 03:39:54 34° SSW
Cosmos 2058 3.4 03:39:02 38° WSW 03:39:52 43° WNW 03:43:50 10° N
COBE Rocket 4.4 03:37:46 10° NNE 03:42:18 51° E 03:44:58 23° SSE
CBERS-1 4.0 03:43:46 10° N 03:48:53 73° WNW 03:51:23 31° SSW
SL-08 R/B 3.5 03:47:32 31° SSW 03:49:45 58° W 03:54:40 10° NNW
AQUA 3.8 03:46:36 10° N 03:51:22 74° WNW 03:53:35 32° SSW
Cosmos 371 Rocket 4.4 03:47:13 10° N 03:51:51 44° ENE 03:56:26 10° SE
Cosmos 1570 Rocket 4.4 03:47:42 10° NNW 03:52:46 44° WSW 03:54:58 29° SSW
ARIANE 5 R/B 2.9 03:49:57 10° NNE 03:54:58 57° E 03:58:23 20° S
Cosmos 2219 Rocket 4.0 03:55:35 10° WNW 03:58:04 13° W 03:58:04 13° W
ADEOS 3.9 03:53:27 10° NNE 03:58:38 61° ESE 04:02:22 19° S
Cosmos 2333 Rocket 3.8 03:56:26 10° WNW 03:59:46 16° W 04:00:01 16° W
Cosmos 2297 Rocket 3.1 03:57:56 22° WSW 04:01:04 39° WNW 04:06:21 10° NNE
Cosmos 1603 4.2 03:58:36 10° NNW 04:04:17 61° ENE 04:09:53 10° SE
NPP 4.1 04:00:43 10° N 04:05:54 49° WNW 04:08:52 24° SW
SL-16 R/B 2.5 04:00:45 12° S 04:06:31 77° WSW 04:12:44 10° NNW
Cosmos 1869 3.2 04:05:27 10° NNW 04:09:28 69° W 04:11:46 24° S
BREEZE-M R/B 4.3 04:05:10 22° SSW 04:09:33 43° SSE 04:13:32 10° ENE
Resurs 1-4 Rocket 2.1 04:05:53 10° NNE 04:11:15 88° ESE 04:15:04 20° SSW
Cosmos 1707 Rocket 3.7 04:08:15 10° NNW 04:12:32 53° W 04:14:58 24° SSW
Cosmos 2034 Rocket 4.2 04:08:25 10° NNW 04:14:37 56° W 04:19:26 17° SSW
Lacrosse 4 Rocket 1.6 04:12:59 27° SW 04:15:04 61° WNW 04:19:17 10° NNE
ATLAS 5 CENTAUR R/B 3.3 04:13:11 13° S 04:16:39 28° ESE 04:20:54 10° NE
USA 161 3.7 04:19:21 10° ESE 04:20:32 14° ENE 04:21:42 10° NE
Cosmos 2237 Rocket 3.8 04:18:04 10° WNW 04:21:08 15° W 04:21:49 15° WSW
Cosmos 841 Rocket 4.0 04:16:40 10° NNW 04:21:56 64° ENE 04:27:09 10° SSE
ADEOS Rocket 3.7 04:14:32 10° N 04:22:02 71° WNW 04:28:27 16° SSW
BREEZE M DEB (TANK) 4.5 04:22:54 12° SSE 04:23:35 13° SSE 04:24:51 10° ESE
SL-16 R/B 2.9 04:19:50 10° NW 04:24:54 34° WSW 04:28:34 17° SSW
Cosmos 1486 Rocket 4.2 04:21:04 17° S 04:25:09 71° ESE 04:30:23 10° NNE
USA 234 4.3 04:24:14 18° SSW 04:26:36 22° WSW 04:31:27 10° WNW
Cosmos 1666 Rocket 4.0 04:25:38 22° SW 04:28:12 46° WNW 04:32:31 10° N
Cosmos 332 Rocket 3.8 04:23:28 10° NNW 04:28:17 67° WSW 04:33:06 10° S
Cosmos 2242 Rocket 3.6 04:25:50 10° NNW 04:30:20 74° W 04:34:51 10° S
Cosmos 1862 Rocket 3.7 04:27:35 10° N 04:31:56 74° E 04:36:14 10° SSE
Cosmos 468 Rocket 4.3 04:27:14 10° NNW 04:32:11 45° WSW 04:37:02 10° S
UNKNOWN OBJECT B 2.9 04:29:37 10° NNE 04:33:39 74° ESE 04:37:04 13° S
Cosmos 2227 4.2 04:31:19 17° SSW 04:35:51 83° WNW 04:41:39 10° NNE
Tsikada Rocket 4.3 04:32:39 16° SSW 04:37:36 53° WNW 04:43:54 10° N
Cosmos 1933 Rocket 3.6 04:33:52 12° S 04:38:00 83° E 04:42:29 10° N
Spot 4 Rocket 4.5 04:33:29 10° N 04:38:25 48° WNW 04:42:18 16° SW
CZ-2D R/B 2.4 04:34:42 10° N 04:39:47 53° WNW 04:43:59 15° SW
Cosmos 2227 Rocket 4.1 04:36:13 10° W 04:40:00 18° NW 04:43:48 10° N
BREEZE-M DEB (TANK) 3.7 04:33:04 10° W 04:41:32 68° N 04:44:47 10° ENE
OAO 3 Rocket 4.5 04:41:17 16° SSW 04:44:02 25° SSE 04:48:05 10° ESE
Meteor 2-10 Rocket 3.5 04:40:01 10° N 04:45:03 87° ENE 04:50:08 10° S
Abrixas rocket 4.3 04:44:24 11° S 04:46:29 17° SE 04:48:45 10° E
Cosmos 1943 3.6 04:43:48 10° NNW 04:49:26 70° ENE 04:55:03 10° SSE
Cosmos 1763 Rocket 3.5 04:44:18 10° NNW 04:49:27 59° WSW 04:54:29 10° S
MOS 1 Rocket 3.6 04:44:17 10° NNE 04:49:32 90° NE 04:54:57 10° SSW
CZ-2D R/B 3.4 04:47:08 10° N 04:51:13 82° WNW 04:55:23 10° SSW
NOSS 3-4 (A) 4.3 04:45:43 10° NW 04:52:11 38° WSW 04:58:59 10° S
NOSS 3-4 (C) 4.3 04:45:49 10° NW 04:52:17 39° WSW 04:59:07 10° S
IRS-1D 4.3 04:48:11 10° N 04:53:08 40° WNW 04:57:33 12° SW
Cosmos 1315 Rocket 3.9 04:50:53 10° SSE 04:54:42 43° E 04:58:30 10° NNE
Cosmos 2263 Rocket 2.9 04:49:38 10° S 04:54:58 50° ESE 05:00:20 10° NE
Cosmos 1703 Rocket 4.4 04:54:00 10° N 04:58:18 53° E 05:02:37 10° SSE
Meteor 2-3 Rocket 4.2 04:54:27 10° S 05:00:04 65° E 05:05:48 10° NNE
Cosmos 1892 3.0 04:58:39 10° S 05:02:25 66° E 05:06:15 10° NNE
DELTA 2 R/B (1) 3.7 04:57:39 10° W 05:03:05 57° S 05:08:32 10° ESE
Cosmos 1503 Rocket 4.1 04:59:32 10° SSW 05:04:49 82° ESE 05:10:05 10° NNE
MOZ.5/SAFIR/RUBIN 5/SL-8 4.2 05:01:52 10° S 05:06:27 46° W 05:11:04 10° NNW
Cosmos 1818 3.5 05:03:12 10° NW 05:08:38 68° WSW 05:14:00 10° SSE
In-Cosmos 22 Rocket 4.1 05:04:32 10° SSW 05:09:48 66° WNW 05:15:07 10° N
Cosmos 1470 Rocket 4.3 05:09:04 10° SW 05:13:03 36° WNW 05:17:04 10° N
Okean O Rocket 2.6 05:10:59 10° NNE 05:15:12 47° E 05:19:23 10° S
Cosmos 2285 Rocket 4.1 05:09:17 10° NNW 05:15:28 59° WSW 05:21:39 10° S
SL-24 R/B 3.7 05:12:06 10° N 05:15:52 66° WNW 05:19:29 10° SSW
Cosmos 2279 Rocket 4.0 05:10:01 10° N 05:16:14 79° W 05:22:27 10° S
GP-B 3.1 05:13:19 10° N 05:17:46 79° W 05:22:12 10° S
Cosmos 1634 Rocket 4.4 05:12:23 10° NNW 05:18:12 44° W 05:23:59 10° SSW
Cosmos 1933 4.4 05:19:24 10° NNW 05:22:56 28° W 05:26:25 10° SSW
Landsat 4 3.7 05:19:56 10° S 05:23:44 78° WSW 05:27:35 10° NNW
Cosmos 1869 Rocket 3.9 05:20:36 10° S 05:25:02 75° E 05:29:30 10° NNE
Lacrosse 5 4.3 05:21:29 10° NNW 05:25:34 24° NNE 05:29:40 10° ENE
